Wind_Speed
10 11 11 12 12 13 13 13 13 13 13 12 11 11 10 10 10 9 8 8 8 8 8 9 9 9 9 9 9 9 9 9 10 10 10 9 9 9 9 9 9 9 9
10 11 11 11 11 12 12 12 12 12 12 12 11 11 10 10 9 9 8 8 8 8 8 8 9 9 9 9 9 9 9 9 9 9 9 9 8 8 8 8 9 9 9
9 10 10 11 11 11 11 11 11 11 11 11 11 11 10 10 9 9 8 8 8 8 8 8 8 8 8 8 8 8 8 9 9 9 8 8 8 8 8 8 9 9 9
8 9 9 10 11 11 11 11 11 11 11 11 11 10 9 9 9 8 8 8 8 8 8 8 8 8 8 8 8 8 7 8 8 7 7 7 8 8 8 8 8 8 8
7 8 9 10 10 10 10 11 11 11 10 10 10 10 9 8 8 8 8 8 7 7 7 7 8 7 7 7 7 7 7 7 7 7 7 7 7 7 7 7 7 7 7
7 8 9 9 10 10 10 10 10 10 10 10 10 9 9 8 8 8 7 7 7 6 7 7 7 7 7 7 7 7 7 7 7 7 7 7 7 7 6 6 6 6 6
7 8 9 9 9 9 9 9 9 9 9 9 9 9 9 8 8 7 7 7 6 6 7 6 6 6 7 6 6 7 7 6 6 7 6 6 6 6 6 5 5 6 6
8 8 8 8 8 8 8 8 8 8 8 8 8 8 8 8 7 7 7 6 6 6 6 6 6 6 6 6 6 6 6 6 6 6 6 6 6 6 5 5 5 5 5
8 8 8 8 8 8 8 8 7 7 7 7 7 7 7 7 7 7 6 6 6 6 6 5 5 5 5 6 6 5 5 6 5 5 5 5 5 5 5 5 5 5 4
9 8 8 7 7 8 8 8 7 7 7 7 6 6 6 6 6 6 6 6 5 5 5 4 5 4 4 5 5 5 5 5 5 5 4 4 4 4 4 4 4 4 4
9 9 8 7 7 7 7 7 7 7 7 6 5 5 6 6 6 5 5 5 5 4 4 4 4 3 4 4 4 4 4 4 4 4 4 4 4 4 4 3 3 3 3
10 9 8 7 6 7 7 7 7 7 7 6 5 5 5 5 5 4 4 4 3 3 3 3 3 3 3 3 3 3 3 4 3 3 3 3 3 3 3 2 2 2 2
10 9 8 7 7 6 6 7 7 7 6 6 5 4 4 3 3 3 2 2 2 2 2 2 2 2 2 2 3 3 2 2 2 2 2 3 3 3 2 2 2 2 2
10 9 9 8 7 7 6 7 7 7 6 5 5 4 3 2 2 2 2 1 1 1 1 1 1 1 2 2 2 1 1 1 1 1 2 2 2 2 2 2 2 2 2
10 9 9 9 8 7 7 7 7 7 6 5 4 4 3 2 2 2 1 1 1 0 1 1 1 2 2 1 1 1 1 0 0 1 1 1 2 2 2 1 2 2 2
11 10 9 9 8 7 7 7 7 7 7 5 5 4 3 3 3 2 1 1 1 1 2 2 2 2 2 2 2 2 2 2 2 2 1 1 1 1 1 1 2 2 3
11 10 9 9 8 7 6 6 6 6 6 5 5 5 4 3 3 3 3 3 2 2 3 4 4 4 4 3 3 4 4 4 3 3 3 2 2 2 2 2 3 3 3
12 11 10 10 9 7 7 7 7 6 6 6 5 5 5 4 4 3 3 3 3 4 3 4 5 5 5 5 5 5 5 5 4 4 4 4 4 4 4 4 4 4 5
12 11 10 9 9 8 8 8 7 6 6 6 6 5 5 5 4 4 4 4 4 5 4 4 4 5 6 7 7 6 6 6 6 6 6 6 6 7 7 7 7 7 7
11 10 9 9 8 8 8 8 8 7 6 6 6 6 6 5 5 5 5 6 6 6 5 6 6 6 7 8 8 8 8 8 7 8 8 8 9 9 9 9 9 9 9
9 9 9 9 8 8 8 8 8 7 6 6 7 6 6 6 6 5 6 6 7 7 7 7 8 8 8 8 9 9 9 10 10 9 10 10 10 11 11 11 11 11 12
9 8 8 9 8 8 8 8 7 7 7 7 7 7 6 6 7 6 7 7 8 8 8 8 9 10 9 9 9 10 10 11 11 11 11 11 12 12 13 13 13 14 14
9 8 8 9 9 9 9 8 8 7 8 8 8 7 7 7 8 8 9 8 8 9 9 10 10 10 11 11 11 11 12 12 13 13 13 13 14 14 15 15 15 15 16
8 9 9 10 10 10 10 9 8 8 9 8 8 8 8 8 8 9 9 9 9 10 11 11 12 12 12 13 13 13 13 14 14 14 15 15 15 16 17 17 16 17 17
9 10 10 11 11 11 10 8 8 9 8 8 8 8 8 9 9 9 9 9 10 11 11 12 12 12 12 12 13 14 14 15 16 16 17 17 17 18 18 18 18 19 18
9 10 11 11 11 11 9 8 9 9 9 9 9 9 9 10 10 10 10 9 10 10 11 10 11 11 12 13 14 14 15 16 17 17 18 18 19 20 20 20 21 21 21
Wind_Direction
71 71 70 71 71 69 68 66 64 65 66 67 64 64 65 67 69 71 71 75 79 83 84 87 90 89 93 93 93 96 98 100 101 100 99 97 97 95 94 95 97 97 97
68 70 70 70 70 69 68 67 65 62 63 64 63 63 65 68 69 71 74 76 77 79 83 90 92 93 94 94 94 96 99 100 102 101 97 96 97 97 96 97 99 100 99
64 65 69 71 69 68 68 68 66 63 61 62 62 62 64 66 66 68 74 79 80 78 80 85 89 91 94 94 94 96 98 98 101 100 96 93 95 96 95 96 98 98 99
62 64 67 70 70 68 68 68 67 64 63 63 64 65 66 67 68 68 72 76 77 76 77 80 85 88 89 91 92 93 94 99 100 99 95 94 94 94 94 94 95 95 97
64 68 68 69 70 70 70 69 68 66 65 63 63 65 67 69 71 71 74 76 77 78 80 82 84 86 86 88 89 93 94 100 103 98 93 92 92 91 92 93 92 92 96
66 69 69 68 68 69 70 70 70 69 66 64 64 65 67 70 71 73 76 78 79 81 83 83 85 86 87 89 91 92 93 98 101 96 92 89 87 87 87 88 88 89 92
65 69 71 69 68 68 68 67 68 69 68 67 66 66 68 70 70 71 74 78 80 80 83 84 85 89 89 89 89 93 96 96 98 96 91 86 83 83 82 83 85 85 88
63 68 71 69 69 67 65 65 66 68 67 66 67 67 69 72 73 74 77 80 81 80 81 84 86 87 88 93 94 94 95 97 97 96 89 84 81 82 82 83 84 82 84
58 63 67 68 67 66 64 66 65 62 61 64 67 68 69 69 72 77 81 83 85 85 83 83 85 87 90 94 95 95 96 100 96 93 87 83 83 84 82 80 79 79 79
56 60 63 67 67 67 65 66 62 57 57 60 64 66 68 69 73 78 81 83 84 84 82 81 85 88 92 96 98 93 90 95 96 90 86 84 85 81 78 77 76 72 69
55 58 60 65 66 66 66 64 59 58 56 57 61 66 68 72 77 85 83 81 82 83 81 80 87 87 92 98 99 93 89 92 96 87 84 79 75 74 72 70 67 64 61
56 58 57 58 59 60 59 55 54 56 52 50 52 66 68 71 76 83 82 85 86 86 86 87 92 94 96 98 98 97 95 101 97 84 76 69 62 61 54 51 49 43 39
53 55 55 54 54 56 54 52 50 51 50 49 50 58 65 65 66 71 76 85 85 92 98 99 99 100 104 101 100 105 99 102 89 73 63 54 47 41 39 37 27 18 14
45 51 54 55 54 55 55 51 44 43 42 44 46 49 47 46 44 40 50 59 70 95 122 117 111 108 115 116 119 113 98 90 85 53 48 39 29 25 15 9 358 354 357
42 51 53 52 53 53 51 47 41 38 39 43 43 38 30 25 22 13 42 44 17 328 239 217 196 169 155 167 189 182 167 191 309 340 14 19 17 12 357 347 342 346 347
45 51 51 49 48 46 43 44 44 40 37 36 35 27 18 1 357 6 357 334 306 284 259 235 234 221 209 211 219 221 232 249 267 286 300 311 329 335 332 324 325 332 330
43 48 47 46 44 39 35 37 36 32 31 31 29 19 10 354 343 342 330 300 278 268 257 245 242 242 235 230 230 236 244 253 257 263 270 276 284 293 287 288 291 300 304
41 42 40 39 36 34 32 28 24 22 18 13 12 10 1 343 328 321 318 301 282 269 260 252 243 243 241 240 239 239 244 251 251 255 265 268 274 280 283 281 280 284 291
33 35 37 33 31 29 26 22 14 14 15 13 10 4 357 348 330 310 307 301 286 280 268 266 263 256 255 251 250 250 249 252 256 260 265 267 269 273 277 277 277 280 282
24 24 25 21 18 17 16 11 9 11 9 4 357 349 343 336 325 311 308 303 288 276 271 271 266 264 264 257 254 253 253 256 259 264 266 266 269 271 274 274 274 276 278
17 14 13 6 2 4 359 357 359 359 356 352 347 340 335 330 324 310 306 298 289 276 272 275 264 261 263 261 257 256 258 259 261 266 267 268 270 274 276 276 275 276 277
11 7 6 2 355 355 350 349 349 346 340 336 331 333 328 321 317 307 302 293 288 280 274 272 265 261 262 262 261 260 261 263 263 266 269 271 271 273 275 277 276 277 277
0 3 0 353 353 349 346 345 341 339 336 329 326 332 332 323 317 308 298 291 289 287 279 271 263 260 261 261 263 264 263 265 266 269 269 270 271 272 276 277 276 276 276
359 2 359 353 350 349 349 345 341 338 337 333 328 329 329 326 324 316 304 295 294 293 287 277 269 262 262 263 264 265 265 266 267 269 272 271 271 273 277 278 278 278 278
353 353 355 350 345 347 350 347 342 338 335 334 331 329 329 327 328 326 317 302 299 297 289 279 273 266 262 263 264 266 267 267 268 272 272 273 275 276 276 277 278 279 279
345 347 348 346 346 347 348 346 344 342 337 334 330 328 329 330 329 328 323 315 306 300 297 286 276 268 264 265 268 271 269 268 268 271 271 272 275 279 279 277 278 279 279
Height
5887 5886 5885 5884 5884 5884 5883 5883 5883 5883 5883 5884 5884 5884 5884 5884 5884 5884 5884 5884 5885 5885 5885 5886 5886 5886 5887 5887 5887 5888 5888 5889 5889 5889 5890 5890 5891 5891 5891 5891 5891 5891 5891
5888 5887 5886 5886 5885 5885 5885 5885 5885 5885 5885 5885 5885 5885 5886 5886 5886 5886 5886 5886 5886 5887 5887 5887 5888 5888 5888 5889 5889 5889 5890 5890 5890 5891 5891 5891 5892 5892 5892 5892 5892 5892 5893
5889 5889 5888 5887 5887 5887 5886 5886 5886 5887 5886 5886 5886 5887 5887 5887 5887 5887 5888 5888 5888 5888 5889 5889 5889 5889 5890 5890 5890 5891 5891 5891 5892 5892 5892 5893 5893 5893 5893 5893 5893 5893 5894
5891 5890 5889 5889 5888 5888 5888 5888 5888 5888 5888 5888 5888 5888 5888 5888 5889 5889 5889 5889 5889 5890 5890 5890 5890 5891 5891 5891 5892 5892 5892 5893 5893 5894 5894 5894 5894 5894 5894 5895 5895 5895 5895
5892 5891 5891 5890 5890 5889 5889 5889 5889 5889 5889 5889 5889 5889 5890 5890 5890 5890 5890 5891 5891 5891 5891 5891 5892 5892 5892 5893 5893 5893 5894 5894 5895 5895 5895 5895 5896 5896 5896 5896 5896 5896 5896
5893 5892 5892 5891 5891 5891 5890 5890 5890 5890 5890 5890 5890 5891 5891 5891 5891 5891 5892 5892 5892 5892 5892 5893 5893 5893 5893 5894 5894 5894 5895 5895 5896 5896 5896 5897 5897 5897 5897 5897 5897 5897 5897
5894 5893 5893 5892 5892 5892 5892 5891 5891 5891 5891 5891 5891 5891 5891 5892 5892 5892 5892 5893 5893 5893 5893 5894 5894 5894 5895 5895 5895 5895 5896 5896 5897 5897 5897 5897 5898 5898 5898 5898 5898 5898 5898
5895 5894 5893 5893 5893 5893 5893 5892 5892 5892 5892 5892 5892 5892 5892 5893 5893 5893 5893 5894 5894 5894 5894 5895 5895 5895 5896 5896 5896 5897 5897 5897 5898 5898 5898 5898 5899 5899 5899 5899 5899 5899 5899
5896 5895 5895 5894 5894 5894 5894 5893 5893 5893 5893 5893 5893 5893 5893 5894 5894 5894 5894 5894 5895 5895 5895 5896 5896 5896 5897 5897 5897 5897 5898 5898 5898 5899 5899 5899 5899 5900 5900 5900 5900 5900 5900
5897 5896 5896 5895 5895 5895 5895 5895 5894 5894 5894 5894 5894 5894 5894 5894 5894 5895 5895 5895 5896 5896 5896 5897 5897 5897 5897 5898 5898 5898 5899 5899 5899 5899 5900 5900 5900 5900 5900 5900 5900 5900 5900
5898 5897 5897 5896 5896 5896 5896 5896 5895 5895 5895 5895 5895 5895 5895 5895 5895 5895 5896 5896 5896 5897 5897 5897 5898 5898 5898 5898 5899 5899 5899 5899 5900 5900 5900 5901 5901 5901 5901 5901 5901 5901 5901
5899 5899 5898 5898 5898 5897 5897 5897 5896 5896 5895 5895 5895 5895 5895 5895 5896 5896 5896 5896 5897 5897 5897 5898 5898 5898 5898 5899 5899 5899 5900 5900 5900 5901 5901 5901 5901 5901 5901 5901 5901 5901 5901
5901 5900 5899 5899 5899 5899 5898 5898 5897 5896 5896 5896 5896 5896 5896 5896 5896 5896 5896 5897 5897 5897 5898 5898 5898 5898 5898 5899 5899 5899 5900 5900 5901 5901 5901 5901 5901 5901 5901 5901 5901 5901 5901
5902 5901 5900 5900 5900 5899 5899 5898 5898 5897 5897 5897 5896 5896 5896 5896 5896 5896 5896 5897 5897 5897 5898 5898 5898 5898 5898 5899 5899 5900 5900 5900 5901 5901 5901 5901 5901 5901 5901 5901 5901 5901 5901
5903 5902 5902 5901 5901 5900 5900 5899 5898 5898 5897 5897 5897 5896 5896 5896 5896 5896 5896 5896 5897 5897 5897 5897 5898 5898 5898 5899 5899 5900 5900 5900 5901 5901 5901 5901 5901 5901 5901 5901 5901 5901 5901
5904 5903 5903 5902 5902 5901 5901 5900 5899 5898 5898 5897 5897 5896 5896 5896 5896 5896 5896 5896 5896 5896 5896 5897 5897 5898 5898 5899 5899 5899 5900 5900 5900 5901 5901 5901 5901 5901 5901 5901 5901 5901 5900
5905 5905 5904 5903 5903 5902 5901 5901 5900 5899 5898 5897 5897 5896 5896 5896 5895 5895 5895 5895 5895 5896 5896 5896 5897 5897 5898 5898 5898 5899 5899 5899 5900 5900 5900 5900 5900 5900 5900 5900 5900 5900 5900
5907 5906 5905 5904 5904 5903 5902 5901 5900 5899 5899 5898 5897 5896 5896 5895 5895 5895 5895 5894 5894 5895 5895 5895 5896 5896 5897 5897 5897 5898 5898 5898 5899 5899 5900 5900 5900 5900 5900 5900 5899 5899 5899
5909 5908 5907 5906 5905 5904 5903 5902 5901 5900 5899 5898 5897 5896 5896 5895 5894 5894 5894 5894 5893 5894 5894 5895 5895 5895 5896 5896 5896 5897 5897 5897 5898 5898 5899 5899 5899 5899 5899 5899 5898 5898 5898
5911 5909 5908 5907 5906 5905 5904 5902 5901 5900 5899 5898 5897 5896 5895 5894 5894 5893 5893 5892 5892 5892 5893 5893 5894 5894 5894 5894 5895 5895 5896 5896 5896 5897 5897 5897 5897 5897 5897 5897 5897 5896 5896
5911 5910 5909 5908 5906 5905 5903 5902 5901 5900 5899 5898 5897 5896 5895 5894 5893 5892 5892 5891 5891 5891 5891 5891 5891 5892 5892 5893 5893 5894 5894 5894 5895 5895 5895 5895 5895 5895 5895 5894 5894 5894 5893
5911 5910 5908 5907 5906 5904 5903 5902 5901 5900 5898 5897 5896 5895 5894 5893 5892 5891 5890 5890 5889 5889 5889 5889 5889 5890 5891 5891 5891 5892 5892 5893 5892 5893 5892 5892 5892 5892 5892 5891 5891 5891 5891
5911 5909 5908 5907 5906 5904 5902 5901 5900 5899 5897 5896 5895 5894 5893 5892 5891 5890 5889 5888 5887 5887 5887 5887 5887 5887 5888 5888 5888 5889 5890 5890 5890 5890 5890 5889 5889 5889 5889 5888 5888 5888 5887
5911 5909 5908 5907 5905 5903 5902 5900 5899 5898 5897 5895 5894 5893 5892 5890 5889 5888 5887 5886 5885 5885 5884 5884 5884 5884 5885 5885 5885 5886 5886 5887 5887 5887 5886 5886 5886 5885 5885 5885 5884 5884 5883
5911 5909 5908 5906 5904 5902 5901 5900 5898 5897 5896 5895 5893 5892 5891 5889 5888 5886 5885 5884 5883 5883 5882 5881 5881 5882 5882 5882 5882 5882 5882 5883 5883 5883 5883 5882 5882 5881 5881 5881 5880 5880 5879
5910 5909 5907 5905 5903 5902 5900 5899 5898 5897 5895 5894 5892 5891 5890 5888 5887 5885 5884 5882 5881 5880 5879 5878 5878 5879 5879 5879 5879 5879 5879 5879 5879 5879 5878 5878 5877 5877 5876 5876 5875 5875 5874